FENGYUN 1C DEB

Satellite information

Favourite Embed

Satellite Type and Status

DEBRISIN ORBIT

Key statistics

Satellite FENGYUN 1C DEB at a glance.

Uptime

9556

Days in orbit

Revolutions

≈ 14.4

Per day

Orbit

SSO

Sun Synchronous Orbit

Inclination

98.9

Latest

Satellite identification and parameters

Extended collection of information and parameters for FENGYUN 1C DEB.

Object identification

Identified? True

Debris? True

Object name: FENGYUN 1C DEB

International designator: 1999-025BHA

Object number (NORAD): 31148

Object ID (CCSDS): 31148

Country: PEOPLES REPUBLIC OF CHINA (PRC)

Current information (Y/N): Y

RCS size: SMALL

Orbital parameters

Period: 99.847 minutes

Inclination: 98.8833 deg

SMA: 7129.356 km

Apoapsis: 849.362 km

Periapsis: 653.079 km

RAAN: 67.1955 deg

Eccentricy: 0.0137658

Argument of periapsis: 162.3539 deg

Mean anomaly: 198.25 deg

Mean motion: 14.42206139 rev/day

Mean motion (dot): 0.00001439 rev/day2

B* drag term: 0.00040399 1/REarth

Two-line elements (TLE)

Creation date: July 7, 2025, 6:34 p.m.

Reference frame: TEME

Reference center: EARTH

Epoch: July 7, 2025, 2:13 a.m. UTC

TLE line 0: 0 FENGYUN 1C DEB

TLE line 1: 1 31148U 99025BHA 25188.09290475 .00001439 00000-0 40399-3 0 9997

TLE line 2: 2 31148 98.8833 67.1955 0137658 162.3539 198.2500 14.42206139952430

Live tracking on map

Real-time ground track for satellite FENGYUN 1C DEB.

In-orbit conjunctions

A list of the most updated potential collisions computed for object FENGYUN 1C DEB.

Target Orbit TCA Probability of collision Miss distance Type
SL-16 DEB LEO 2024-11-16 22:22:52 0.0001677029 922.0 (m) DEBRIS
FENGYUN 1C DEB SSO 2024-09-02 14:59:21 0.0001123001 894.0 (m) DEBRIS
IRIDIUM 920 LEO 2024-08-30 14:46:29 0.0002471459 512.0 (m) PAYLOAD

Associated space launch

Chinese polar orbiting meteorological satellite

FENGYUN 1C DEB was lifted into orbit during the mission ‘Long March 4B | Feng Yun 1C’, on board a Long March 4B space rocket.

The launch took place on May 10, 1999, 1:33 a.m. from Launch Complex 7.

For more information about the launch, click the button.

Launch to space Long March 4B | Feng Yun 1C
Long March 4B | Feng Yun 1C

Agency: N/A

Status: Launch Successful

Launch date: May 10, 1999, 1:33 a.m. UTC

Rocket: Long March 4B

Launch pad: Launch Complex 7

Location: Taiyuan Satellite Launch Center, People's Republic of China

...

Latest news about this satellite

There are no fresh news available about this satellite. Check back as we update our databases every day.


Newsletter sign-up

Weekly statistics, charts and insights to help you stay on top of the space industry.